Погода в Магри

Россия / Краснодарский край     44°01′19″N   39°09′36″E
темп.,
°C
ветер,
м/с
пор.,
м/с
влажн.,
%
обл.,
%
осадки,
мм/ч
давл.,
гПа
погр.,
м
21 апреля, ср
ср2100:00+11ююв4792100 0.3 1017236
03:00+10ю348799 1.2 1017148
06:00+10зюз119199 0.0 101867
09:00+11зсз2285100 0.1 1019237
12:00+11зсз2276100 0.0 1020284
15:00+11зсз337998 0.0 1020360
18:00+11сз33801 0.0 1020168
21:00+10с3377100 0.0 102142
22 апреля, чт
чт2200:00+10с2272100 0.0 102029
03:00+10с2276100 0.0 102036
06:00+10св32797 0.0 102040
09:00+13з11686 0.0 1021206
12:00+12зюз4378100 0.0 1022433
15:00+11сз3581100 0.1 1022390
18:00+11зсз4585100 0.1 1021159
21:00+11св22870 0.4 102223
23 апреля, пт
пт2300:00+10в33830 0.0 102345
03:00+9в22821 0.0 102447
06:00+9в22820 0.0 102455
09:00+12ю35812 0.0 1024306
12:00+12ю56780 0.0 1024473
15:00+12ююз1276100 0.0 1022241
18:00+12с117752 0.0 102066
21:00+11с0081100 0.0 102010
24 апреля, сб
сб2400:00+12сз3375100 0.0 102032
03:00+11с2274100 0.0 102021
06:00+12в446398 0.0 102031
09:00+14юз355999 0.0 1020479
12:00+12зюз127186 0.0 1022224
15:00+12юз23705 0.0 1021351
18:00+12с117286 0.0 1021106
21:00+12ссв2267100 0.0 102111
25 апреля, вс
вс2500:00+12ссв2258100 0.0 102015
03:00+12ссв226097 0.0 101916
06:00+12ссв2267100 0.0 101833
09:00+13ююв2365100 0.0 1017138
12:00+11ссв2386100 1.4 1017157
15:00+11с2293100 6.8 1017122
18:00+11св2289100 2.1 101648
21:00+10св2286100 2.3 101671